Tracking 20715 objects as of 27-May-2020
HD Live streaming from Space Station
objects crossing your sky now

FENGYUN 1C DEB

Track FENGYUN 1C DEB now!
10-day predictions


NORAD ID: 32425
Int'l Code: 1999-025DAM
Perigee: 683.8 km
Apogee: 1,038.9 km
Inclination: 96.7 °
Period: 102.0 minutes
Semi major axis: 7232 km
RCS: 0.003 m2 (small)
Launch date: May 10, 1999
Source: People's Republic of China (PRC)
Launch site: Taiyaun Space Center, China (TSC)

Note: This is SATELLITE DEBRIS
aabbcc
Your satellite tracking list
Your tracking list is empty




NASA's NSSDC Master Catalog

Two Line Element Set (TLE):
1 32425U 99025DAM 20144.51905894 +.00000137 +00000-0 +69746-4 0  9990
2 32425 096.7266 049.6820 0245474 268.3047 089.0002 14.11519422408741
Source of the keplerian elements: AFSPC